Simultaneous Nadir Overpasses (SNOs) Predictions

Prediction of SNOs between GOES-17 and NOAA-20 Satellite Orbit:

Table of predicted SNOs for the next 14.0 days since TLE Epoch: 11/9/2024
Index Date Time (GOES-17) GOES-17 Lat,Lon NOAA-20 Lat,Lon Distance(km) Time Diff (sec)
1 11/10/2024 08:25:16 0.00,-104.70 0.11,-105.08 43.15 80
2 11/11/2024 08:03:50 0.00,-104.70 -0.91,-100.54 473.78 80
3 11/12/2024 20:25:45 -0.00,-104.70 -0.26,-105.85 131.18 80
4 11/13/2024 20:09:40 -0.00,-104.70 0.77,-101.31 386.20 80
5 11/15/2024 08:31:25 -0.00,-104.72 0.43,-106.57 211.23 80
6 11/16/2024 08:10:00 -0.00,-104.72 -0.61,-102.04 305.52 80
7 11/17/2024 20:31:54 0.00,-104.70 -0.59,-107.34 300.51 80
8 11/18/2024 20:15:48 0.00,-104.70 0.40,-102.80 216.79 80
9 11/20/2024 08:37:33 0.00,-104.73 0.76,-108.06 379.67 80
10 11/21/2024 08:16:06 0.00,-104.73 -0.24,-103.52 137.51 80
11 11/22/2024 20:38:01 -0.00,-104.71 -0.94,-108.82 468.53 80
